Время (UTC), дата Ветер
(°,м/с) 
Видим.   Явления Облачность Т
(°С)
Тd
(°С)
f(%) Тe
(°С)
Pmin
(гПа)
dP
(гПа)
Po
(мм)
O2
(г/м3)
Тmin Tmax R s Состояние
почвы
00 01.11.11 260 (З) >10 км    ясно 
-1.2 -3.9 82 -2  1024.1  726  294           
03 01.11.11 250 (З) >10 км    ясно 
-0.1 -4.4 73 +1  1023.6  -0.3  726  293           
06 01.11.11 270 (З) >10 км    4/3 600 м верхняя 
[Sc|Ci fib]
+5.5 +2.3 80 +4  1022.8  0.4  726  286  -3.4         
09 01.11.11 290 (З) >10 км    3/0 верхняя 
[Ci fib]
+9 +2.2 62 +7  1021.7  -0.4  726  283           
12 01.11.11 290 (З) >10 км    9/5 600 м средняя 
[Sc|Ac trans]
+8.3 +3.2 70 +7  1021.6  -0.2  726  283           
15 01.11.11 250 (З) >10 км    4/3 600 м средняя 
[Sc|Ac trans]
+4.5 +2.1 84 +3  1022.1  -0.3  725  287    +9.8       
18 01.11.11 300 (СЗ) >10 км    8/8 870 м 
[Sc]
+5.2 +2.4 82 +4  1022.3  0.3  726  286    +9.8       
21 01.11.11 260 (З) 10 км    3/3 600 м 
[Sc]
+1.9 +0.7 92 1022.6  -0.3  725  290           
00 02.11.11 280 (З) 2000 м  дымка  ясно 
+2 +1.4 96 +1  1022.7  0.1  725  290           
03 02.11.11 260 (З) 2000 м  дымка  8/8 210 м 
[St]
+3.2 +2.3 94 +2  1022.7  0.1  725  289           
06 02.11.11 270 (З) 2000 м  дымка  8/4 300 м средняя, верхняя 
[Sc|Ac trans|Ci sp]
+4.7 +2.6 86 +4  1022  0.1  725  287  +1.6         
09 02.11.11 310 (СЗ) >10 км    10/0 средняя, верхняя 
[Ac trans|Ci sp]
+8.6 -0.4 53 +8  1020.5  -0.7  725  283           
12 02.11.11 350 (С) >10 км    8/0 средняя, верхняя 
[Ac trans|Ci fib]
+8.5 -1.5 49 +9  1020  -0.5  725  283           
15 02.11.11 010 (С) >10 км    10/0 средняя, верхняя 
[Ac trans|Ci fib]
+5.4 +1.2 74 +5  1021.5  0.8  725  286    +9.6       
18 02.11.11 070 (В) 4000 м  дымка  6/3 240 м средняя 
[St|Ac trans]
+2.4 +1.8 96 +2  1022.2  0.1  725  289    +9.6       
21 02.11.11 060 (СВ) 0300 м  туман  ясно 
+1.4 +1 97 +1  1021.9  -0.5  725  290           
00 03.11.11 070 (В) 1100 м  дымка{туман}  ясно 
+0.2 -0.1 98 -2  1022.1  725  292           
03 03.11.11 170 (Ю) 1500 м  дымка{туман}  3/0 средняя 
[Ac trans]
+0.3 -0 98 1022.3  0.2  725  292           
06 03.11.11 110 (В) 3000 м  дымка{туман}  4/0 верхняя 
[Ci fib]
+4.5 +3.2 91 +3  1022.2  0.7  725  287  -0.6         
09 03.11.11 120 (ЮВ) 10 км    3/0 верхняя 
[Ci fib]
+9 +3.5 68 +8  1020.6  -0.6  725  282           
12 03.11.11 090 (В) 10 км    3/3 600 м 
[Sc]
+10.1 +2.5 59 +9  1019.6  -0.6  724  281           
15 03.11.11 090 (В) 10 км    3/0 верхняя 
[Ci fib]
+3.9 +1.4 84 +3  1021.1  0.2  725  288    +10.8       
18 03.11.11 090 (В) 10 км    3/0 верхняя 
[Ci fib]
+1.6 +0.2 91 1021.4  0.1  725  290    +10.8       
21 03.11.11 070 (В) 3000 м  дымка  ясно 
+1.3 +0.6 95 +1  1020.8  -0.6  724  290           
00 04.11.11 070 (В) 2000 м  дымка  ясно 
+2 +1.1 94 +3  1020.1  -0.5  724  289           
03 04.11.11 220 (ЮЗ) 3000 м  дымка  3/0 средняя 
[Ac trans]
-0.5 -1.1 96 -1  1020.7  724  292           
06 04.11.11 200 (Ю) 4000 м  дымка  ясно 
+6 +3.3 83 +6  1020.1  0.8  724  285  -0.6         
09 04.11.11 340 (С) 4000 м  дымка  5/5 300 м 
[Sc]
+8.9 +2.7 65 +9  1019.2  -0.3  724  282           
12 04.11.11 320 (СЗ) >10 км    1/0 средняя 
[Ac trans]
+8.5 +2.3 65 +7  1018.8  -0.4  724  282           
15 04.11.11 310 (СЗ) >10 км    3/0 средняя 
[Ac trans]
+3.7 +1.3 84 +2  1021.1  1.2  725  288    +9.6       
18 04.11.11 300 (СЗ) 2000 м  дымка  10/10 60 м 
[St]
+2.9 +2.4 97 +2  1022.4  1.1  725  289    +9.6       
21 04.11.11 300 (СЗ) 10 км    10/5 480 м средняя 
[Sc|Ac und]
+3.7 +2.9 94 +3  1023  0.7  726  288           
00 05.11.11 320 (СЗ) 10 км    10/6 420 м средняя 
[Sc|Ac und]
+2.9 +1.9 93 +2  1023.4  0.2  726  289           
03 05.11.11 340 (С) 4000 м  дымка  10/8 450 м средняя 
[Sc|Ac und]
+2.6 +1.2 90 +3  1024.2  0.7  727  290           
06 05.11.11 280 (З) 10 км    10/8 600 м средняя 
[Sc|Ac und]
+3.4 +0.8 83 +4  1025  0.9  727  289  +2.5         
09 05.11.11 020 (С) >10 км    8/5 600 м средняя 
[Sc|Ac trans]
+6 +0.3 67 +6  1024.3  -0.2  727  287           
12 05.11.11 360 (С) >10 км    10/6 1080 м кучево-дожд., средняя 
[Cb calv|Ac und]
+5.2 +1.2 75 +4  1024.4  0.1  727  287           
15 05.11.11 тихо ()   >10 км    9/5 800 м кучево-дожд., средняя 
[Cb calv|Ac trans]
+4.6 +0.6 75 +5  1025.6  1.1  728  288    +6.1       
18 05.11.11 320 (СЗ) >10 км    10/4 1000 м средняя 
[Sc|Ac und]
+4.2 +0.9 79 +5  1026.1  0.4  728  289    +6.1       
21 05.11.11 010 (С) >10 км  слаб. дождь  10/6 360 м средняя 
[Sc diur, vesp|Ac und]
+3.4 +2.4 93 +2  1026.3  728  289           
00 06.11.11 350 (С) >10 км  {дождь}  10/10 240 м 
[Sc diur, vesp]
+1 -0.2 92 -1  1027.1  728  292           
03 06.11.11 360 (С) >10 км    10/10 180 м 
[Sc diur, vesp]
-0.3 -1.2 93 -3  1028  0.5  729  294           
06 06.11.11 050 (СВ) >10 км  {туман}  10/10 300 м 
[Sc]
-1.3 -3.2 87 -5  1030  1.7  730  296  -0.3    0.0     
09 06.11.11 060 (СВ) >10 км    10/6 720 м средняя 
[Sc|Ac und]
+0.1 -5.1 68 -3  1030.3  0.6  731  295           
12 06.11.11 060 (СВ) >10 км    10/5 900 м средняя 
[Sc|Ac und]
+0.2 -6.4 61 -3  1030.5  0.2  731  295           
15 06.11.11 020 (С) >10 км    8/8 1000 м 
[Sc]
-2.6 -7.4 70 -6  1033.2  732  299    +0.4       
18 06.11.11 060 (СВ) >10 км    ясно 
-6.2 -8.9 81 -9  1035.8  1.7  734  303           
21 06.11.11 050 (СВ) >10 км    8/8 840 м 
[Sc]
-7.4 -10.4 79 -11  1036.6  0.5  734  305           
00 07.11.11 050 (СВ) >10 км    ясно 
-10 -11.9 86 -13  1037.4  0.1  734  308           
03 07.11.11 080 (В) >10 км    ясно 
-12.3 -13.5 91 -14  1038.7  0.8  735  311           
06 07.11.11 100 (В) >10 км    ясно 
-7.9 -10.1 84 -9  1039  1.2  735  306  -12.3         
09 07.11.11 040 (СВ) >10 км    ясно 
-4.6 -14.7 45 -7  1038.2  0.1  735  303           
12 07.11.11 040 (СВ) >10 км    ясно 
-3.4 -14.6 42 -6  1037.3  -0.6  735  301           
15 07.11.11 050 (СВ) >10 км    ясно 
-7.6 -13.5 63 -9  1039.1  0.9  736  306    -3.2       
18 07.11.11 050 (СВ) >10 км    ясно 
-9.5 -15.9 59 -11  1039.7  -0.2  736  308    -3.2       
21 07.11.11 110 (В) >10 км    ясно 
-10.2 -14.4 71 -12  1040  0.2  736  309           
00 08.11.11 220 (ЮЗ) >10 км    ясно 
-12.2 -15.3 78 -12  1039.6  -0.9  735  311           
03 08.11.11 180 (Ю) >10 км    ясно 
-11.4 -15.4 72 -15  1039.1  -0.3  735  310           
06 08.11.11 160 (Ю) >10 км    9/0 средняя, верхняя 
[Ac trans|Ci]
-5.9 -10.9 68 -6  1037.9  0.1  735  304  -12.4         
09 08.11.11 110 (В) >10 км    9/0 верхняя 
[Ci fib]
-1.7 -15.5 34 -3  1035.1  -1.8  734  299           
12 08.11.11 120 (ЮВ) >10 км    6/0 верхняя 
[Ci fib]
+0.9 -14.9 30 +2  1031.8  -2.6  732  295           
15 08.11.11 тихо ()   >10 км    3/0 верхняя 
[Ci fib]
-4.4 -13.6 49 -4  1031  -1.8  730  300    +1.5       
18 08.11.11 240 (ЮЗ) >10 км    3/0 средняя 
[Ac trans]
-2.2 -14.8 37 -6  1026.8  -3.6  728  297    +1.5       
21 08.11.11 250 (З) >10 км    8/0 средняя 
[Ac trans]
+2.3 -6.5 52 1022.2  -3.4  725  290           
00 09.11.11 250 (З) >10 км    8/0 средняя 
[Ac trans]
+3.1 -1 74 1017.7  -4  722  288           
03 09.11.11 260 (З) 13{20}  >10 км    10/3 600 м кучево-дожд., средняя 
[Cb calv|Ac und]
+3.2 -0.4 77 -2  1012.8  -4.5  719  286           
06 09.11.11 250 (З) 11{19}  >10 км    10/5 600 м кучево-дожд., средняя 
[Cb calv|Ac und]
+3.6 -0 77 -1  1009.3  -3.2  716  285           
09 09.11.11 280 (З) 11{19}  >10 км    10/5 600 м кучево-дожд., средняя 
[Cb calv|Ac und]
+5.7 +0.1 67 +2  1006.2  -2.5  714  282           
12 09.11.11 280 (З) 13{26}  >10 км  слаб. ливневой дождь  10/6 600 м кучево-дожд., средняя 
[Cb cap|Ac und]
+7 -1.2 56 +3  1005.4  -0.5  714  281           
15 09.11.11 330 (СЗ) 4{23}  1200 м  ливневой снег  10/8 100 м кучево-дожд., средняя 
[Cb cap|Ac und]
-0.9 -1.1 99 -3  1009.3  -0.5  716  289           
18 09.11.11 320 (СЗ) 1200 м  ливневой снег  10/8 100 м кучево-дожд., средняя 
[Cb cap|Ac und]
-1.4 -1.7 98 -2  1011.5  717  291    +7.7     
21 09.11.11 270 (З) 10 км  {ливн. осадки}  10/8 150 м кучево-дожд., средняя 
[Cb calv|Ac und]
-1.8 -2.1 98 -5  1012.7  718  291           
00 10.11.11 250 (З) >10 км  {ливн. осадки}  10/10 480 м 
[Sc]
-2 -2.3 98 -5  1012.3  -0.4  718  291           
03 10.11.11 240 (ЮЗ) >10 км    10/8 400 м средняя 
[Sc|Ac und]
-2.3 -2.6 98 -5  1012.6  0.3  718  292           
06 10.11.11 240 (ЮЗ) 3000 м  слаб. ливневой снег  10/8 240 м кучево-дожд., средняя 
[Cb calv|Ac und]
-1.3 -1.6 98 -4  1013.4  0.9  718  291  -3.1    13     
09 10.11.11 260 (З) 4000 м  слаб. ливневой снег  10/6 300 м кучево-дожд., средняя 
[Cb calv|Ac und]
-0.9 -1.4 96 -5  1013.5  -0.1  719  291           
12 10.11.11 270 (З) 2000 м  слаб. ливневой снег  10/6 300 м кучево-дожд., средняя 
[Cb cap|Ac und]
-1.1 -1.5 97 -5  1014.2  0.7  719  291           
15 10.11.11 270 (З) 3000 м  {ливн. осадки}  10/8 180 м кучево-дожд., средняя 
[Cb calv|Ac und]
-1 -1.4 97 -4  1015.7  1.4  720  291    -0.8       
18 10.11.11 280 (З) 10 км  слаб. ливневой снег  10/6 400 м кучево-дожд., средняя 
[Cb cap|Ac und]
-2.8 -3.2 97 -7  1017.7  1.6  721  294    -0.8     
21 10.11.11 280 (З) 1500 м  ливневой снег  10/8 330 м кучево-дожд., средняя 
[Cb calv|Ac und]
-3.5 -4 96 -6  1019.4  1.5  722  295           
00 11.11.11 270 (З) 2000 м  слаб. ливневой снег  10/6 300 м кучево-дожд., средняя 
[Cb cap|Ac und]
-3.6 -4.1 96 -7  1020.7  1.1  723  296           
03 11.11.11 270 (З) 3000 м  слаб. ливневой снег  10/6 330 м кучево-дожд., средняя 
[Cb cap|Ac und]
-3.8 -4.3 96 -7  1022  1.1  724  296        17  равномерный
сухой снег
100% 
06 11.11.11 280 (З) 3000 м  слаб. ливневой снег  10/8 120 м кучево-дожд., средняя 
[Cb cap|Ac und]
-3.6 -4.2 96 -6  1023.4  1.4  725  296  -3.8    17  равномерный
сухой снег
100% 
09 11.11.11 290 (З) 10 км  в посл. час ливневой снег  10/8 480 м кучево-дожд., средняя 
[Cb calv|Ac trans]
-3.3 -4.2 94 -5  1023.8  0.5  725  296           
12 11.11.11 310 (СЗ) 4000 м  слаб. ливневой снег  10/8 420 м кучево-дожд., средняя 
[Cb cap|Ac und]
-3.6 -4.7 92 -6  1024.4  0.4  726  297           
15 11.11.11 330 (СЗ) 10 км  в посл. час ливневой снег  10/8 150 м кучево-дожд., средняя 
[Cb calv|Ac und]
-4.6 -5.1 96 -6  1025.4  0.8  726  298    -3.1       
18 11.11.11 320 (СЗ) 4000 м  слаб. ливневой снег  10/8 360 м кучево-дожд., средняя 
[Cb cap|Ac und]
-5 -5.5 96 -6  1026.2  0.6  727  299    -3.1  0.8     
21 11.11.11 320 (СЗ) 3000 м  слаб. снег{ливн. осадки}  10/6 150 м верхняя 
[Sc diur, vesp|Ci fib]
-4.7 -5.3 96 -6  1026.2  727  299           
00 12.11.11 310 (СЗ) 10 км  слаб. снег{ливн. осадки}  10/8 500 м средняя 
[Sc diur, vesp|Ac und]
-4.6 -5.2 96 -4  1026.7  0.6  727  299           
03 12.11.11 300 (СЗ) 4000 м  слаб. снег  10/8 300 м средняя 
[Sc|Ac und]
-4.5 -5 96 -6  1027.7  728  299        17  равномерный
сухой снег
100% 
06 12.11.11 340 (С) >10 км  {снег}  10/8 750 м кучево-дожд., средняя 
[Cb calv|Ac und]
-3.5 -4.5 93 -6  1029.2  1.6  729  298  -5.1    0.9  17  равномерный
сухой снег
100% 
09 12.11.11 310 (СЗ) >10 км    10/6 900 м кучево-дожд., средняя 
[Cb calv|Ac und]
-2.6 -4.4 87 -5  1029.4  0.3  730  297           
12 12.11.11 320 (СЗ) >10 км  {ливн. осадки}  9/6 300 м кучево-дожд., средняя 
[Cb calv|Ac trans]
-3.6 -4.8 91 -6  1030.2  0.6  730  299           
15 12.11.11 280 (З) >10 км    10/8 540 м средняя 
[Sc|Ac und]
-4.7 -5.6 94 -7  1031.6  1.1  731  300    -2.4       
18 12.11.11 290 (З) >10 км    10/6 480 м средняя 
[Sc|Ac und]
-5.4 -6.5 92 -9  1032.7  0.8  731  301    -2.4  0.2     
21 12.11.11 300 (СЗ) >10 км    10/8 450 м средняя 
[Sc|Ac und]
-4.9 -6.1 91 -7  1032.8  0.2  732  301           
00 13.11.11 260 (З) >10 км    10/8 450 м средняя 
[Sc|Ac und]
-4.8 -5.9 92 -9  1032.6  0.2  731  301           
03 13.11.11 270 (З) >10 км  слаб. снег  10/8 300 м средняя 
[Sc|Ac und]
-4.8 -5.7 93 -9  1032.9  0.2  732  301        15  равномерный
сухой снег
100% 
06 13.11.11 320 (СЗ) 3000 м  снег  10/10 200 м 
[Ns]
-4.9 -5.7 94 -8  1033.9  0.6  732  301  -5.4         
09 13.11.11 320 (СЗ) >10 км  слаб. снег  10/10 240 м 
[St]
-4.2 -5.6 90 -7  1034  0.3  733  300           
12 13.11.11 350 (С) 10 км  слаб. снег  10/10 270 м 
[St]
-4.4 -6 89 -7  1034.5  0.4  733  301           
15 13.11.11 340 (С) >10 км  слаб. снег  8/6 540 м средняя 
[Sc|Ac As]
-5.3 -5.8 96 -5  1035.6  0.9  734  302    -3.9       
18 13.11.11 050 (СВ) >10 км  в посл. час снег  6/5 300 м средняя 
[Sc|Ac As]
-7.9 -8.6 95 -8  1036.8  0.5  734  305    -3.9     
21 13.11.11 тихо ()   4000 м  слаб. снег{туман}  10/6 540 м средняя 
[Sc|Ac und]
-7.2 -7.9 95 -7  1036.1  -0.5  734  304           
00 14.11.11 110 (В) 1000 м  переохл. туман{снег}  ясно 
-9.5 -10.4 93 -9  1035.4  -1.2  733  307           
03 14.11.11 140 (ЮВ) 0200 м  переохл. туман  ясно 
-10.9 -11.8 93 -13  1035.1  -0.6  732  308        15  равномерный
сухой снег
100% 
06 14.11.11 140 (ЮВ) 0300 м  переохл. туман  ясно 
-9.4 -10.3 93 -9  1034.6  -0.6  732  306  -11.8    0.2  16  равномерный
сухой снег
100% 
09 14.11.11 130 (ЮВ) >10 км  {туман}  1/0 средняя 
[Ac trans]
-9.4 -10.3 93 -11  1034.6  -1.4  731  306           
12 14.11.11 110 (В) >10 км  {туман}  ясно 
-6.8 -8.6 87 -8  1031.2  -1.3  730  303           
15 14.11.11 140 (ЮВ) >10 км    ясно 
-10.2 -10.8 95 -10  1030.8  -1.3  729  306    -5.3       
18 14.11.11 320 (СЗ) 4000 м  дымка  ясно 
-9.4 -10.3 93 -11  1029.5  -1  729  305    -5.3       
21 14.11.11 060 (СВ) 0800 м  переохл. туман  ясно 
-8.6 -9.3 95 -10  1028.3  -1  728  304           
00 15.11.11 160 (Ю) >10 км  {туман}  ясно 
-11.8 -12.9 92 -12  1027.8  -1.1  727  307           
03 15.11.11 170 (Ю) >10 км    ясно 
-11.6 -12.7 92 -14  1026.6  -1.1  726  307        15  равномерный
сухой снег
100% 
06 15.11.11 300 (СЗ) >10 км    10/8 450 м средняя 
[Sc|Ac und]
-4.6 -5.4 94 -4  1025  726  298  -13         
09 15.11.11 230 (ЮЗ) >10 км    10/8 500 м средняя 
[Sc|Ac und]
-0.2 -2.7 83 -1  1021.9  -2  725  292           
12 15.11.11 340 (С) >10 км    10/8 540 м средняя 
[Sc|Ac und]
+0.2 -2.2 84 -1  1020.3  -1.4  724  292           
15 15.11.11 210 (ЮЗ) >10 км    8/8 600 м 
[Sc]
-1.7 -2.8 92 -3  1019.6  -1.1  723  293    +1.2       
18 15.11.11 230 (ЮЗ) >10 км    4/4 600 м 
[Sc]
-3.2 -4.1 93 -3  1019.2  -0.7  722  295    +1.2       
21 15.11.11 280 (З) >10 км    10/6 540 м средняя 
[Sc|Ac und]
-1.3 -2.8 90 -3  1018.2  -0.5  722  292           
00 16.11.11 260 (З) 1000 м  дымка  10/10 100 м 
[St]
-3.2 -3.6 97 -4  1018.7  0.1  722  295           
03 16.11.11 270 (З) 4000 м  дымка  10/10 210 м 
[St]
-3.1 -3.8 95 -5  1019  0.3  722  295        10  равномерный
мокрый или
старый снег
100% 
06 16.11.11 230 (ЮЗ) >10 км    10/8 700 м средняя 
[Sc|Ac und]
-2.4 -4 89 -5    0.3  722  294  -8.1      10  равномерный
мокрый или
старый снег
100% 
09 16.11.11 240 (ЮЗ) >10 км    10/8 750 м средняя 
[Sc|Ac und]
-1 -3.1 86 -4  1018.4  -0.6  722  292           
12 16.11.11 230 (ЮЗ) >10 км    10/8 900 м средняя 
[Sc|Ac und]
-0.8 -2.5 88 -3  1018.6  0.2  722  292           
15 16.11.11 250 (З) >10 км    10/8 450 м средняя 
[Sc|Ac und]
-0.7 -1.9 92 -3  1019.9  1.3  723  292    -0.4       
18 16.11.11 260 (З) 10 км  слаб. снег  10/8 400 м средняя 
[Sc|Ac und]
-0.8 -1.9 92 -3  1020.6  0.7  724  293    -0.4       
21 16.11.11 290 (З) 4000 м  слаб. снег  10/8 660 м средняя 
[Sc|Ac und]
-1.1 -1.7 96 -2  1021.4  0.7  724  293           
00 17.11.11 360 (С) 0500 м  слаб. снег{туман}  ?/?  
-1.6 -1.9 98 -3    0.3  724  294           
03 17.11.11 тихо ()   0500 м  слаб. снег{туман}  ?/?  
-1.8 -2.1 98 -2  1022.7  0.7  725  294        12  равномерный
сухой снег
100% 
06 17.11.11 030 (СВ) 0200 м  слаб. снег{туман}  ?/?  
-1.9 -2.2 98 -4  1024.3  1.6  726  295  -1.8    0.9  12  равномерный
сухой снег
100% 
09 17.11.11 140 (ЮВ) 0600 м  туман{снег}  ?/?  
-1 -1.4 97 1024.2  726  294           
12 17.11.11 320 (СЗ) 0300 м  туман{снег}  ?/?  
-1.6 -1.9 98 -3  1024.3  726  294           
15 17.11.11 290 (З) 10 км  {туман, морось} [диам. гололёда 1 мм]  10/6 120 м 
[St]
-2.2 -2.6 97 -4  1024.9  0.5  726  295    -0.7       
18 17.11.11 270 (З) 10 км  {морось, туман}  10/10 210 м 
[St]
-3.3 -3.8 96 -7  1025  -0.2  726  297    -0.7       
21 17.11.11 270 (З) >10 км    10/10 240 м 
[St]
-2.9 -3.7 94 -7  1025.1  0.1  726  296           
00 18.11.11 260 (З) >10 км  [диам. гололёда 1 мм]  8/8 300 м 
[Sc]
-3.1 -4.5 90 -8  1024.5  -0.5  726  296           
03 18.11.11 280 (З) >10 км  [диам. гололёда 0 мм]  10/3 300 м средняя 
[Sc|Ac und]
-3.2 -5 87 -7  1024.5  -0.1  726  296        12  равномерный
сухой снег
100% 
06 18.11.11 270 (З) >10 км    8/3 300 м средняя 
[Sc|Ac trans]
-2.7 -4.8 85 -7  1024.9  0.5  726  296  -3.6         
09 18.11.11 260 (З) >10 км    8/0 средняя 
[Ac trans]
-1 -4.3 78 -5  1024.5  0.1  726  294           
12 18.11.11 260 (З) >10 км    8/0 средняя 
[Ac trans]
+0 -4.8 70 -4  1023.9  -0.4  726  293           
15 18.11.11 250 (З) >10 км    8/4 800 м средняя 
[Sc|Ac trans]
-0.1 -4.5 72 -4  1024.3  0.4  726  293    +0.4       
18 18.11.11 250 (З) >10 км    10/4 600 м средняя 
[Sc|Ac und]
-0.3 -3.1 81 -4  1024.9  0.5  727  293    +0.4       
21 18.11.11 270 (З) >10 км    10/4 600 м средняя 
[Sc|Ac und]
+0.1 -2.1 85 -3  1025.1  0.3  727  293           
00 19.11.11 280 (З) >10 км    10/5 600 м средняя 
[Sc|Ac und]
-0.3 -1.8 89 -3  1025.4  0.1  727  293           
03 19.11.11 260 (З) >10 км    10/4 600 м средняя 
[Sc|Ac und]
-0.5 -2.3 88 -4  1025.3  0.1  727  294        12  равномерный
мокрый или
старый снег
100% 
06 19.11.11 290 (З) >10 км    10/5 600 м средняя 
[Sc|Ac und]
+0.7 -3.9 71 1025.9  0.8  728  293  -0.6      10  равномерный
мокрый или
старый снег
100% 
09 19.11.11 270 (З) >10 км    6/0 средняя 
[Ac trans]
+3.2 -5.5 53 +1  1025  -0.4  727  290           
12 19.11.11 260 (З) >10 км    8/0 верхняя 
[Ci fib]
+2.6 -2.4 70 +1  1024.5  -0.6  727  290           
15 19.11.11 230 (ЮЗ) >10 км    6/0 средняя 
[Ac trans]
-0.7 -3.6 81 -2  1025.4  0.1  727  294    +3.3       
18 19.11.11 240 (ЮЗ) >10 км    3/0 средняя 
[Ac trans]
+0.1 -3.3 78 -2  1024.3  -0.8  726  293    +3.3       
21 19.11.11 210 (ЮЗ) >10 км    ясно 
+0.5 -3.3 76 -2  1023.6  -0.6  726  292           
00 20.11.11 170 (Ю) >10 км    6/0 средняя 
[Ac trans]
+0.4 -3.4 76 -3  1022.8  -0.8  725  292           
03 20.11.11 260 (З) >10 км    10/6 420 м средняя 
[Sc|Ac und]
+2.8 +0.3 84 -1  1021.5  -0.7  725  289        10  равномерный
мокрый или
старый снег
100% 
06 20.11.11 280 (З) 4000 м  дымка  10/8 270 м средняя 
[St|Ac und]
+0.6 -1 89 -3  1022.9  0.9  725  292  -1.2      10  равномерный
мокрый или
старый снег
100% 
09 20.11.11 270 (З) >10 км    4/3 300 м верхняя 
[Sc|Ci fib]
+1.2 -2.1 79 -2  1022  -0.7  725  291           
12 20.11.11 290 (З) 10 км    6/6 600 м 
[Sc]
+1.5 -0.7 85 -2  1021.8  -0.1  725  290           
15 20.11.11 290 (З) 10 км    9/6 420 м средняя 
[Sc|Ac trans]
+0.7 -1.2 87 -4  1022.9  0.8  725  292    +2.8       
18 20.11.11 270 (З) >10 км    10/10 240 м 
[St]
+0.6 -0.5 92 -2  1024.3  1.3  726  292    +2.8       
21 20.11.11 290 (З) 1800 м  слаб. снег  10/10 150 м 
[Ns]
+0 -0.5 96 -2  1025.3  0.9  727  293           
00 21.11.11 260 (З) 1300 м  слаб. снег  10/8 400 м средняя 
[Sc|Ac und]
-0.8 -1.1 98 -3  1025.6  0.1  727  294           
03 21.11.11 270 (З) >10 км  дымка{снег}  10/8 100 м средняя 
[St|Ac und]
-0.9 -1.2 98 -2  1026.2  0.5  728  294        равномерный
мокрый или
старый снег
100% 
06 21.11.11 230 (ЮЗ) 4000 м  дымка{снег}  10/8 600 м средняя 
[Sc|Ac und]
-0.1 -0.7 96 -2  1027.4  1.3  728  294  -0.9    0.8     
09 21.11.11 320 (СЗ) 4000 м  дымка  10/8 400 м средняя 
[Sc|Ac und]
+0.9 -0.2 92 1027.9  0.7  729  293           
12 21.11.11 300 (СЗ) 4000 м  дымка  10/8 300 м средняя 
[Sc|Ac und]
+0.5 -0.3 94 1028.9  0.9  730  293           
15 21.11.11 250 (З) 10 км    9/6 900 м средняя 
[Sc|Ac trans]
+0.2 -0.8 93 -1  1030.6  1.5  731  294    +1.1       
18 21.11.11 тихо ()   >10 км    10/5 800 м средняя 
[Sc|Ac und]
+0.4 -1.4 88 1031.1  0.5  731  294    +1.1       
21 21.11.11 090 (В) 2000 м  дымка  10/8 150 м средняя 
[St|Ac und]
-0.5 -0.9 97 -2  1031.1  0.1  731  295           
00 22.11.11 110 (В) 2000 м  дымка{туман}  10/10 180 м 
[St]
-0.9 -1.1 99 -2  1030.2  -0.9  730  295           
03 22.11.11 160 (Ю) 0200 м  туман  ?/?  
-2.2 -2.4 98 -3  1029.1  -1.3  729  297           
06 22.11.11 180 (Ю) 2000 м  дымка{туман} [диам. гололёда 1 мм]  8/5 120 м верхняя 
[St|Ci fib]
-0.8 -1 99 -3  1028.3  -0.5  729  295  -2.2      мокрый или
старый снег
50-90% 
09 22.11.11 180 (Ю) >10 км    9/0 средняя 
[Ac trans]
+5 -0.5 68 +5  1025.6  -1.4  728  288           
12 22.11.11 330 (СЗ) >10 км    9/3 1000 м средняя 
[Sc|Ac trans]
+4 +0.8 80 +4  1024.6  -1.1  727  289           
15 22.11.11 340 (С) >10 км    10/4 1000 м средняя 
[Sc|Ac und]
+2.4 +0.6 88 +3  1024.4  -0.5  727  290    +5.9       
18 22.11.11 310 (СЗ) >10 км    10/5 600 м средняя 
[Sc diur, vesp|Ac und]
+2 +0.5 90 +1  1024  -0.5  726  290    +5.9       
21 22.11.11 320 (СЗ) 1200 м  слаб. ливневой снег{туман}  10/8 100 м кучево-дожд., средняя 
[Cb cap|Ac und]
-0.3 -0.6 98 -3  1024.9  0.3  727  293           
00 23.11.11 260 (З) >10 км  {ливн. осадки, туман}  10/4 240 м средняя 
[St|Ac und]
-0.6 -1.7 92 -3  1024.6  -0.3  726  293           
03 23.11.11 250 (З) >10 км    10/5 270 м средняя 
[St|Ac und]
-0.3 -1.6 91 -4  1023.5  -0.9  726  293        мокрый или
старый снег
10-40% 
06 23.11.11 280 (З) 1000 м  ливневой снег  10/8 100 м кучево-дожд., средняя 
[Cb cap|Ac und]
-0.8 -1.6 94 -5  1023.9  0.3  726  293  -0.6    0.0     
09 23.11.11 350 (С) 1500 м  ливневой снег  10/8 120 м кучево-дожд., средняя 
[Cb cap|Ac und]
-4.4 -5.2 94 -9  1026.9  2.1  728  298           
12 23.11.11 010 (С) 4000 м  слаб. ливневой снег  10/8 210 м кучево-дожд., средняя 
[Cb cap|Ac und]
-6.4 -7.1 95 -11  1029.6  2.1  729  302           
15 23.11.11 020 (С) >10 км  слаб. ливневой снег  10/8 360 м кучево-дожд., средняя 
[Cb cap|Ac und]
-9.2 -10.9 88 -14  1033.4  2.9  731  306    +0.6       
18 23.11.11 030 (СВ) 10 км  слаб. ливневой снег  10/6 300 м кучево-дожд., средняя 
[Cb cap|Ac und]
-10.2 -11.9 87 -13  1035.9  2.1  733  308    +0.6     
21 23.11.11 050 (СВ) >10 км  слаб. снег  10/8 450 м средняя 
[Sc|Ac und]
-11.3 -12.6 90 -15  1037.1  734  309           
00 24.11.11 060 (СВ) >10 км  слаб. снег  10/8 500 м средняя 
[Sc|Ac und]
-11.7 -14.1 82 -15  1037.7  0.4  734  310           
03 24.11.11 060 (СВ) >10 км  слаб. снег  10/8 300 м средняя 
[Sc|Ac und]
-11.7 -14.2 82 -15  1038.6  0.9  735  310        равномерный
сухой снег
100% 
06 24.11.11 060 (СВ) >10 км  в посл. час снег  8/3 300 м средняя 
[Sc|Ac trans]
-12.6 -14.9 83 -17  1039.9  735  312  -12.4    0.2     
09 24.11.11 080 (В) >10 км  слаб. снег  6/5 450 м средняя 
[Sc|Ac trans]
-11.9 -14.6 80 -15  1039.5  -0.2  735  311           
12 24.11.11 080 (В) >10 км  {снег}  3/3 300 м 
[Sc]
-11 -13.9 79 -14  1039.4  735  310           
15 24.11.11 080 (В) >10 км  в посл. час снег  3/3 300 м 
[Sc]
-15.1 -16.4 89 -20  1041.1  736  315    -10.2       
18 24.11.11 090 (В) >10 км  {снег}  3/0 средняя 
[Ac trans]
-16.4 -18 88 -20  1041.6  0.1  736  317    -10.2  0.0     
21 24.11.11 150 (ЮВ) >10 км    ясно 
-15.9 -17.3 89 -16  1040.6  -0.8  735  316           
00 25.11.11 150 (ЮВ) >10 км    ясно 
-15.6 -17.1 88 -18  1039.6  -0.9  735  315           
03 25.11.11 140 (ЮВ) >10 км    ясно 
-15.8 -17.4 87 -16  1038.9  -0.7  734  315        равномерный
сухой снег
100% 
06 25.11.11 170 (Ю) >10 км    ясно 
-12.7 -13.9 90 -13  1038.5  0.3  734  312  -16.8      равномерный
сухой снег
100% 
09 25.11.11 130 (ЮВ) >10 км    1/0 верхняя 
[Ci fib]
-9.2 -12.5 77 -11  1036.7  -0.9  734  307           
12 25.11.11 140 (ЮВ) >10 км    1/0 верхняя 
[Ci fib]
-7.8 -11.2 76 -9  1034.6  -1.7  732  305           
15 25.11.11 130 (ЮВ) >10 км    ясно 
-11.1 -12.2 92 -13  1035  -0.3  732  309    -6.6       
18 25.11.11 250 (З) >10 км    ясно 
-10 -11.5 89 -12  1033.6  -1.1  731  307    -6.6       
21 25.11.11 280 (З) >10 км    3/0 верхняя 
[Ci fib]
-6.9 -19.6 36 -8  1031.4  -1.5  730  303           
00 26.11.11 290 (З) >10 км    8/0 средняя 
[Ac trans]
-6.6 -14.2 55 -8  1030  -1.2  729  302           
03 26.11.11 220 (ЮЗ) >10 км    10/0 средняя 
[Ac und]
-7.8 -14.3 60 -9  1028.9  -1.3  728  303        равномерный
сухой снег
100% 
06 26.11.11 020 (С) >10 км    10/4 1000 м средняя 
[Sc|Ac und]
-6.4 -11 70 -6  1028.8  0.2  728  302  -14.2      равномерный
сухой снег
100% 
09 26.11.11 150 (ЮВ) >10 км    10/5 1000 м средняя 
[Sc|Ac und]
-6.1 -9.4 77 -8  1027.8  -0.9  728  301           
12 26.11.11 220 (ЮЗ) >10 км    10/4 1000 м средняя 
[Sc|Ac und]
-4.5 -9.7 67 -4  1025.9  -1.4  727  299           
15 26.11.11 210 (ЮЗ) 10 км  слаб. снег  10/8 600 м средняя 
[Sc|Ac und]
-5.8 -7.2 90 -7  1026.2  727  300    -4.2       
18 26.11.11 170 (Ю) >10 км  в посл. час снег  10/8 600 м средняя 
[Sc|As op]
-5.6 -6.5 93 -7  1024.8  -1.2  726  299    -4.2  0.2     
21 26.11.11 310 (СЗ) >10 км  {снег}  10/6 900 м средняя 
[Sc|Ac und]
-4.9 -6.3 90 -4  1023.8  -0.8  725  298           
00 27.11.11 тихо ()   >10 км  {снег}  10/6 800 м средняя 
[Sc|Ac und]
-5.5 -6.4 93 -6  1023.5  -0.4  725  299           
03 27.11.11 250 (З) >10 км    10/8 600 м средняя 
[Sc|Ac und]
-4.5 -5.3 94 -7  1022.5  -0.7  724  297        равномерный
сухой снег
100% 
06 27.11.11 270 (З) 2000 м  слаб. ливневой снег  10/8 200 м кучево-дожд., средняя 
[Cb cap|Ac und]
-2.9 -3.8 94 -6  1022.9  0.6  725  296  -5.8    0.0     
09 27.11.11 260 (З) >10 км  {ливн. осадки}  10/8 450 м кучево-дожд., средняя 
[Cb calv|Ac und]
-2 -17.2 30 -5  1022.2  -0.5  725  295           
12 27.11.11 260 (З) >10 км  слаб. ливневой снег  10/8 600 м кучево-дожд., средняя 
[Cb cap|Ac und]
-0.2 -3.3 80 -4  1021.1  -0.6  724  292           
15 27.11.11 270 (З) 4000 м  слаб. ливневой снег  10/8 180 м кучево-дожд., средняя 
[Cb cap|Ac und]
-0.8 -1.4 96 -4  1021.8  0.6  724  293    +0.1       
18 27.11.11 290 (З) 10 км  слаб. ливневой снег  10/8 300 м кучево-дожд., средняя 
[Cb cap|Ac und]
-0.6 -1.2 96 -4  1022.5  0.7  725  293    +0.1  0.9     
21 27.11.11 290 (З) 1700 м  дымка{ливн. осадки}  10/10 120 м 
[St]
-1.4 -1.7 98 -3  1023.8  726  294           
00 28.11.11 260 (З) 4000 м  дымка{ливн. осадки}  8/8 150 м 
[St]
-2.2 -2.9 95 -5  1024.4  0.4  726  295           
03 28.11.11 230 (ЮЗ) >10 км    4/4 100 м 
[St]
-4.7 -5.1 97 -8  1024.6  -0.3  726  298        равномерный
сухой снег
100% 
06 28.11.11 210 (ЮЗ) >10 км    6/3 600 м средняя 
[Sc|Ac trans]
-2.7 -3.4 95 -6  1023.8  -0.3  726  296  -6.1    равномерный
сухой снег
100% 
09 28.11.11 180 (Ю) >10 км    5/5 600 м 
[Sc]
+2.1 -1 80 +1  1021.5  -1.2  725  290           
12 28.11.11 170 (Ю) >10 км    9/9 900 м 
[Sc]
+2.2 -0.7 81 +2  1020.3  -1.1  724  289           
15 28.11.11 200 (Ю) >10 км    10/8 630 м средняя 
[Sc|Ac und]
+1.2 -1.1 85 1019.3  -1.1  723  290    +4.7       
18 28.11.11 190 (Ю) >10 км  слаб. снег  10/8 480 м средняя 
[Sc|Ac und]
+1.3 -1.5 82 -1  1018.8  -0.5  723  290    +4.7       
21 28.11.11 200 (Ю) >10 км  в посл. час снег  10/4 600 м средняя 
[Sc|Ac und]
+1.3 -1.3 83 1016.4  -2.2  721  289           
00 29.11.11 230 (ЮЗ) >10 км  слаб. снег  10/6 800 м средняя 
[Sc|Ac und]
+2 -1.6 77 +1  1015.9  -0.3  721  288           
03 29.11.11 250 (З) >10 км  в посл. час снег  10/6 400 м средняя 
[Sc|Ac und]
+1.7 +0.2 90 -2  1015.6  -0.3  720  288        равномерный
мокрый или
старый снег
100% 
06 29.11.11 270 (З) 13{20}  >10 км  слаб. снег  10/8 300 м средняя 
[Sc|Ac und]
+0.8 -0.9 88 -5  1016.8  0.9  721  290  +0.8    0.8  равномерный
мокрый или
старый снег
100% 
09 29.11.11 270 (З) 11{20}  >10 км  {снег}  10/6 300 м средняя 
[Sc|Ac und]
+0.9 -1.7 83 -4  1018.5  1.6  722  290           
12 29.11.11 260 (З) 10{20}  4000 м  слаб. снег  10/8 300 м средняя 
[Sc|Ac und]
+0.5 -2 83 -4  1020.4  1.8  724  291           
15 29.11.11 260 (З) 11  >10 км  {ливн. осадки, снег}  8/6 570 м кучево-дожд., средняя 
[Cb calv|Ac trans]
+0.1 -2.1 85 -5  1022.6  725  292    +1.7       
18 29.11.11 270 (З) 10{18}  >10 км  {ливн. осадки, снег}  9/6 600 м кучево-дожд., средняя 
[Cb calv|Ac trans]
-0.7 -3 84 -6  1023.4  0.6  726  293    +1.7  0.0     
21 29.11.11 260 (З) 10 км  слаб. ливневой снег  10/8 360 м кучево-дожд., средняя 
[Cb cap|Ac und]
-0.3 -2.6 84 -5  1022.9  -0.5  725  293           
00 30.11.11 270 (З) 10 км  слаб. ливневой снег  10/8 300 м кучево-дожд., средняя 
[Cb cap|Ac und]
-0.7 -1.8 92 -5  1021.8  -1.1  724  293           
03 30.11.11 280 (З) 4000 м  слаб. ливневой снег  10/8 150 м кучево-дожд., средняя 
[Cb cap|Ac und]
-1.2 -1.6 97 -5  1022  -0.1  725  293        равномерный
мокрый или
старый снег
100% 
06 30.11.11 290 (З) 10 км  {ливн. осадки}  10/8 240 м средняя 
[St|Ac und]
-1.1 -1.7 96 -5  1023.5  1.3  726  294  -1.3    0.5  равномерный
мокрый или
старый снег
100% 
09 30.11.11 280 (З) 2000 м  дымка{туман}  10/10 270 м 
[St]
-0.9 -1.3 97 -4  1023.7  1.3  726  293           
12 30.11.11 260 (З) 4000 м  дымка{снег, туман}  9/6 300 м средняя 
[Sc|Ac trans]
-0.6 -1.4 94 -3  1023.9  0.2  726  293           
15 30.11.11 240 (ЮЗ) >10 км    4/4 600 м 
[Sc]
-2.9 -4 92 -6  1024.8  0.4  726  296    -0.6       
18 30.11.11 270 (З) >10 км    8/8 660 м 
[Sc]
-2 -3 93 -5  1025  0.4  727  295    -0.6  0.0     
21 30.11.11 270 (З) >10 км  слаб. снег  10/8 480 м средняя 
[Sc|Ac und]
-0.7 -1.9 92 -3  1024.5  -0.2  726  294           
00 01.12.11 280 (З) >10 км  {снег}  10/5 210 м 
[St]
-1.7 -3.1 90 -4  1024.2  -0.5  726  295           
03 01.12.11 280 (З) >10 км  позёмок  10/6 800 м средняя 
[Sc|Ac und]
-2.9 -3.1 99 -6  1024.2  -0.2  726  296        равномерный
мокрый или
старый снег
100% 
06 01.12.11 270 (З) >10 км    10/6 1000 м средняя 
[Sc|Ac und]
-1.6 -5 78 -4  1025.2  1.1  727  295  -3.5         
09 01.12.11 260 (З) >10 км    9/3 300 м средняя 
[Sc|Ac As]
-0.7 -3.1 84 -5  1023.8  -1.1  726  294           
12 01.12.11 270 (З) >10 км    9/3 600 м средняя 
[Sc diur, vesp|Ac trans]
-0.2 -2.4 85 -4  1022.9  -0.7  725  293           
15 01.12.11 270 (З) >10 км    10/5 600 м средняя 
[Sc|Ac und]
+0.7 -2.2 81 -3  1022.8  725  292    +0.7       
18 01.12.11 250 (З) >10 км  слаб. снег  10/8 600 м средняя 
[Sc|Ac und]
+1.8 -2.6 73 -1  1022.5  0.1  725  291    +0.7       
21 01.12.11 250 (З) >10 км  {снег}  10/4 600 м средняя 
[Sc|Ac und]
+1.4 -2.8 74 -2  1021.6  -0.9  725  291           
00 02.12.11 210 (ЮЗ) >10 км  {снег}  10/4 1000 м средняя 
[Sc|Ac und]
+1.1 -4.2 68 1020.5  -1.1  724  291           
03 02.12.11 210 (ЮЗ) >10 км    8/4 1000 м средняя 
[Sc|Ac und]
+0.9 -3.9 70 -2  1020  -0.5  723  291        равномерный
мокрый или
старый снег
100% 
Время (UTC), дата Ветер
(°,м/с) 
Видим.   Явления Облачность Т
(°С)
Тd
(°С)
f(%) Тe
(°С)
Pmin
(гПа)
dP
(гПа)
Po
(мм)
O2
(г/м3)
Тmin Tmax R s Состояние
почвы